Year,Month,Day,Hour,Minute,Value (Times are PST for barometer in hPa)
2012,12,17,00,00,975.73
2012,12,17,00,01,975.72
2012,12,17,00,02,975.72
2012,12,17,00,03,975.72
2012,12,17,00,04,975.72
2012,12,17,00,05,975.72
2012,12,17,00,06,975.72
2012,12,17,00,07,975.72
2012,12,17,00,08,975.72
2012,12,17,00,09,975.72
2012,12,17,00,10,975.72
2012,12,17,00,11,975.72
2012,12,17,00,12,975.72
2012,12,17,00,13,975.72
2012,12,17,00,14,975.72
2012,12,17,00,15,975.96
2012,12,17,00,16,975.96
2012,12,17,00,17,975.96
2012,12,17,00,18,975.96
2012,12,17,00,19,975.96
2012,12,17,00,20,975.96
2012,12,17,00,21,975.96
2012,12,17,00,22,975.96
2012,12,17,00,23,975.96
2012,12,17,00,24,975.96
2012,12,17,00,25,975.96
2012,12,17,00,26,975.96
2012,12,17,00,27,975.96
2012,12,17,00,28,975.96
2012,12,17,00,29,975.96
2012,12,17,00,30,975.72
2012,12,17,00,31,975.72
2012,12,17,00,32,975.72
2012,12,17,00,33,975.72
2012,12,17,00,34,975.72
2012,12,17,00,35,975.72
2012,12,17,00,36,975.72
2012,12,17,00,37,975.72
2012,12,17,00,38,975.72
2012,12,17,00,39,975.72
2012,12,17,00,40,975.72
2012,12,17,00,41,975.72
2012,12,17,00,42,975.72
2012,12,17,00,43,975.72
2012,12,17,00,44,975.72
2012,12,17,00,45,975.86
2012,12,17,00,46,975.86
2012,12,17,00,47,975.86
2012,12,17,00,48,975.86
2012,12,17,00,49,975.86
2012,12,17,00,50,975.86
2012,12,17,00,51,975.86
2012,12,17,00,52,975.86
2012,12,17,00,53,975.86
2012,12,17,00,54,975.86
2012,12,17,00,55,975.86
2012,12,17,00,56,975.86
2012,12,17,00,57,975.86
2012,12,17,00,58,975.86
2012,12,17,00,59,975.86
2012,12,17,01,00,975.96
2012,12,17,01,01,975.96
2012,12,17,01,02,975.96
2012,12,17,01,03,975.96
2012,12,17,01,04,975.96
2012,12,17,01,05,975.96
2012,12,17,01,06,975.96
2012,12,17,01,07,975.96
2012,12,17,01,08,975.96
2012,12,17,01,09,975.96
2012,12,17,01,10,975.96
2012,12,17,01,11,975.96
2012,12,17,01,12,975.96
2012,12,17,01,13,975.96
2012,12,17,01,14,975.96
2012,12,17,01,15,975.96
2012,12,17,01,16,975.96
2012,12,17,01,17,975.96
2012,12,17,01,18,975.96
2012,12,17,01,19,975.96
2012,12,17,01,20,975.96
2012,12,17,01,21,975.96
2012,12,17,01,22,975.96
2012,12,17,01,23,975.96
2012,12,17,01,24,975.96
2012,12,17,01,25,975.96
2012,12,17,01,26,975.96
2012,12,17,01,27,975.96
2012,12,17,01,28,975.96
2012,12,17,01,29,975.96
2012,12,17,01,30,975.79
2012,12,17,01,31,975.79
2012,12,17,01,32,975.79
2012,12,17,01,33,975.79
2012,12,17,01,34,975.79
2012,12,17,01,35,975.79
2012,12,17,01,36,975.79
2012,12,17,01,37,975.79
2012,12,17,01,38,975.79
2012,12,17,01,39,975.79
2012,12,17,01,40,975.79
2012,12,17,01,41,975.79
2012,12,17,01,42,975.79
2012,12,17,01,43,975.79
2012,12,17,01,44,975.79
2012,12,17,01,45,975.89
2012,12,17,01,46,975.89
2012,12,17,01,47,975.89
2012,12,17,01,48,975.89
2012,12,17,01,49,975.89
2012,12,17,01,50,975.89
2012,12,17,01,51,975.89
2012,12,17,01,52,975.89
2012,12,17,01,53,975.89
2012,12,17,01,54,975.89
2012,12,17,01,55,975.89
2012,12,17,01,56,975.89
2012,12,17,01,57,975.89
2012,12,17,01,58,975.89
2012,12,17,01,59,975.89
2012,12,17,02,00,975.92
2012,12,17,02,01,975.92
2012,12,17,02,02,975.92
2012,12,17,02,03,975.92
2012,12,17,02,04,975.92
2012,12,17,02,05,975.92
2012,12,17,02,06,975.92
2012,12,17,02,07,975.92
2012,12,17,02,08,975.92
2012,12,17,02,09,975.92
2012,12,17,02,10,975.92
2012,12,17,02,11,975.92
2012,12,17,02,12,975.92
2012,12,17,02,13,975.92
2012,12,17,02,14,975.92
2012,12,17,02,15,976.09
2012,12,17,02,16,976.09
2012,12,17,02,17,976.09
2012,12,17,02,18,976.09
2012,12,17,02,19,976.09
2012,12,17,02,20,976.09
2012,12,17,02,21,976.09
2012,12,17,02,22,976.09
2012,12,17,02,23,976.09
2012,12,17,02,24,976.09
2012,12,17,02,25,976.09
2012,12,17,02,26,976.09
2012,12,17,02,27,976.09
2012,12,17,02,28,976.09
2012,12,17,02,29,976.09
2012,12,17,02,30,976.40
2012,12,17,02,31,976.40
2012,12,17,02,32,976.40
2012,12,17,02,33,976.40
2012,12,17,02,34,976.40
2012,12,17,02,35,976.40
2012,12,17,02,36,976.40
2012,12,17,02,37,976.40
2012,12,17,02,38,976.40
2012,12,17,02,39,976.40
2012,12,17,02,40,976.40
2012,12,17,02,41,976.40
2012,12,17,02,42,976.40
2012,12,17,02,43,976.40
2012,12,17,02,44,976.40
2012,12,17,02,45,976.57
2012,12,17,02,46,976.57
2012,12,17,02,47,976.57
2012,12,17,02,48,976.57
2012,12,17,02,49,976.57
2012,12,17,02,50,976.57
2012,12,17,02,51,976.57
2012,12,17,02,52,976.57
2012,12,17,02,53,976.57
2012,12,17,02,54,976.57
2012,12,17,02,55,976.57
2012,12,17,02,56,976.57
2012,12,17,02,57,976.57
2012,12,17,02,58,976.57
2012,12,17,02,59,976.57
2012,12,17,03,00,976.91
2012,12,17,03,01,976.91
2012,12,17,03,02,976.91
2012,12,17,03,03,976.91
2012,12,17,03,04,976.91
2012,12,17,03,05,976.91
2012,12,17,03,06,976.91
2012,12,17,03,07,976.91
2012,12,17,03,08,976.91
2012,12,17,03,09,976.91
2012,12,17,03,10,976.91
2012,12,17,03,11,976.91
2012,12,17,03,12,976.91
2012,12,17,03,13,976.91
2012,12,17,03,14,976.91
2012,12,17,03,15,977.01
2012,12,17,03,16,977.01
2012,12,17,03,17,977.01
2012,12,17,03,18,977.01
2012,12,17,03,19,977.01
2012,12,17,03,20,977.01
2012,12,17,03,21,977.01
2012,12,17,03,22,977.01
2012,12,17,03,23,977.01
2012,12,17,03,24,977.01
2012,12,17,03,25,977.01
2012,12,17,03,26,977.01
2012,12,17,03,27,977.01
2012,12,17,03,28,977.01
2012,12,17,03,29,977.01
2012,12,17,03,30,977.52
2012,12,17,03,31,977.52
2012,12,17,03,32,977.52
2012,12,17,03,33,977.52
2012,12,17,03,34,977.52
2012,12,17,03,35,977.52
2012,12,17,03,36,977.52
2012,12,17,03,37,977.52
2012,12,17,03,38,977.52
2012,12,17,03,39,977.52
2012,12,17,03,40,977.52
2012,12,17,03,41,977.52
2012,12,17,03,42,977.52
2012,12,17,03,43,977.52
2012,12,17,03,44,977.52
2012,12,17,03,45,978.13
2012,12,17,03,46,978.16
2012,12,17,03,47,978.16
2012,12,17,03,48,978.16
2012,12,17,03,49,978.16
2012,12,17,03,50,978.16
2012,12,17,03,51,978.16
2012,12,17,03,52,978.16
2012,12,17,03,53,978.16
2012,12,17,03,54,978.16
2012,12,17,03,55,978.16
2012,12,17,03,56,978.16
2012,12,17,03,57,978.16
2012,12,17,03,58,978.16
2012,12,17,03,59,978.16
2012,12,17,04,00,979.07
2012,12,17,04,01,979.11
2012,12,17,04,02,979.11
2012,12,17,04,03,979.11
2012,12,17,04,04,979.11
2012,12,17,04,05,979.11
2012,12,17,04,06,979.11
2012,12,17,04,07,979.11
2012,12,17,04,08,979.11
2012,12,17,04,09,979.11
2012,12,17,04,10,979.11
2012,12,17,04,11,979.11
2012,12,17,04,12,979.11
2012,12,17,04,13,979.11
2012,12,17,04,14,979.11
2012,12,17,04,15,980.17
2012,12,17,04,16,980.22
2012,12,17,04,17,980.22
2012,12,17,04,18,980.22
2012,12,17,04,19,980.22
2012,12,17,04,20,980.22
2012,12,17,04,21,980.22
2012,12,17,04,22,980.22
2012,12,17,04,23,980.22
2012,12,17,04,24,980.22
2012,12,17,04,25,980.22
2012,12,17,04,26,980.22
2012,12,17,04,27,980.22
2012,12,17,04,28,980.22
2012,12,17,04,29,980.22
2012,12,17,04,30,980.94
2012,12,17,04,31,980.94
2012,12,17,04,32,980.94
2012,12,17,04,33,980.94
2012,12,17,04,34,980.94
2012,12,17,04,35,980.94
2012,12,17,04,36,980.94
2012,12,17,04,37,980.94
2012,12,17,04,38,980.94
2012,12,17,04,39,980.94
2012,12,17,04,40,980.94
2012,12,17,04,41,980.94
2012,12,17,04,42,980.94
2012,12,17,04,43,980.94
2012,12,17,04,44,980.94
2012,12,17,04,45,981.55
2012,12,17,04,46,981.55
2012,12,17,04,47,981.55
2012,12,17,04,48,981.55
2012,12,17,04,49,981.55
2012,12,17,04,50,981.55
2012,12,17,04,51,981.55
2012,12,17,04,52,981.55
2012,12,17,04,53,981.55
2012,12,17,04,54,981.55
2012,12,17,04,55,981.55
2012,12,17,04,56,981.55
2012,12,17,04,57,981.55
2012,12,17,04,58,981.55
2012,12,17,04,59,981.55
2012,12,17,05,00,982.63
2012,12,17,05,01,982.63
2012,12,17,05,02,982.63
2012,12,17,05,03,982.63
2012,12,17,05,04,982.63
2012,12,17,05,05,982.63
2012,12,17,05,06,982.63
2012,12,17,05,07,982.63
2012,12,17,05,08,982.63
2012,12,17,05,09,982.63
2012,12,17,05,10,982.63
2012,12,17,05,11,982.63
2012,12,17,05,12,982.63
2012,12,17,05,13,982.63
2012,12,17,05,14,982.63
2012,12,17,05,15,983.31
2012,12,17,05,16,983.34
2012,12,17,05,17,983.34
2012,12,17,05,18,983.34
2012,12,17,05,19,983.34
2012,12,17,05,20,983.34
2012,12,17,05,21,983.34
2012,12,17,05,22,983.34
2012,12,17,05,23,983.34
2012,12,17,05,24,983.34
2012,12,17,05,25,983.34
2012,12,17,05,26,983.34
2012,12,17,05,27,983.34
2012,12,17,05,28,983.34
2012,12,17,05,29,983.34
2012,12,17,05,30,983.71
2012,12,17,05,31,983.71
2012,12,17,05,32,983.71
2012,12,17,05,33,983.71
2012,12,17,05,34,983.71
2012,12,17,05,35,983.71
2012,12,17,05,36,983.71
2012,12,17,05,37,983.71
2012,12,17,05,38,983.71
2012,12,17,05,39,983.71
2012,12,17,05,40,983.71
2012,12,17,05,41,983.71
2012,12,17,05,42,983.71
2012,12,17,05,43,983.71
2012,12,17,05,44,983.71
2012,12,17,05,45,984.12
2012,12,17,05,46,984.12
2012,12,17,05,47,984.12
2012,12,17,05,48,984.12
2012,12,17,05,49,984.12
2012,12,17,05,50,984.12
2012,12,17,05,51,984.12
2012,12,17,05,52,984.12
2012,12,17,05,53,984.12
2012,12,17,05,54,984.12
2012,12,17,05,55,984.12
2012,12,17,05,56,984.12
2012,12,17,05,57,984.12
2012,12,17,05,58,984.12
2012,12,17,05,59,984.12
2012,12,17,06,00,984.53
2012,12,17,06,01,984.53
2012,12,17,06,02,984.53
2012,12,17,06,03,984.53
2012,12,17,06,04,984.53
2012,12,17,06,05,984.53
2012,12,17,06,06,984.53
2012,12,17,06,07,984.53
2012,12,17,06,08,984.53
2012,12,17,06,09,984.53
2012,12,17,06,10,984.53
2012,12,17,06,11,984.53
2012,12,17,06,12,984.53
2012,12,17,06,13,984.53
2012,12,17,06,14,984.53
2012,12,17,06,15,985.13
2012,12,17,06,16,985.13
2012,12,17,06,17,985.13
2012,12,17,06,18,985.13
2012,12,17,06,19,985.13
2012,12,17,06,20,985.13
2012,12,17,06,21,985.13
2012,12,17,06,22,985.13
2012,12,17,06,23,985.13
2012,12,17,06,24,985.13
2012,12,17,06,25,985.13
2012,12,17,06,26,985.13
2012,12,17,06,27,985.13
2012,12,17,06,28,985.13
2012,12,17,06,29,985.13
2012,12,17,06,30,985.91
2012,12,17,06,31,985.91
2012,12,17,06,32,985.91
2012,12,17,06,33,985.91
2012,12,17,06,34,985.91
2012,12,17,06,35,985.91
2012,12,17,06,36,985.91
2012,12,17,06,37,985.91
2012,12,17,06,38,985.91
2012,12,17,06,39,985.91
2012,12,17,06,40,985.91
2012,12,17,06,41,985.91
2012,12,17,06,42,985.91
2012,12,17,06,43,985.91
2012,12,17,06,44,985.91
2012,12,17,06,45,986.86
2012,12,17,06,46,986.86
2012,12,17,06,47,986.86
2012,12,17,06,48,986.86
2012,12,17,06,49,986.86
2012,12,17,06,50,986.86
2012,12,17,06,51,986.86
2012,12,17,06,52,986.86
2012,12,17,06,53,986.86
2012,12,17,06,54,986.86
2012,12,17,06,55,986.86
2012,12,17,06,56,986.86
2012,12,17,06,57,986.86
2012,12,17,06,58,986.86
2012,12,17,06,59,986.89
2012,12,17,07,00,987.51
2012,12,17,07,01,987.51
2012,12,17,07,02,987.51
2012,12,17,07,03,987.51
2012,12,17,07,04,987.51
2012,12,17,07,05,987.51
2012,12,17,07,06,987.51
2012,12,17,07,07,987.51
2012,12,17,07,08,987.51
2012,12,17,07,09,987.51
2012,12,17,07,10,987.51
2012,12,17,07,11,987.51
2012,12,17,07,12,987.51
2012,12,17,07,13,987.51
2012,12,17,07,14,987.53
2012,12,17,07,15,988.05
2012,12,17,07,16,988.05
2012,12,17,07,17,988.05
2012,12,17,07,18,988.05
2012,12,17,07,19,988.05
2012,12,17,07,20,988.05
2012,12,17,07,21,988.05
2012,12,17,07,22,988.05
2012,12,17,07,23,988.05
2012,12,17,07,24,988.05
2012,12,17,07,25,988.05
2012,12,17,07,26,988.05
2012,12,17,07,27,988.05
2012,12,17,07,28,988.05
2012,12,17,07,29,988.05
2012,12,17,07,30,988.59
2012,12,17,07,31,988.59
2012,12,17,07,32,988.59
2012,12,17,07,33,988.59
2012,12,17,07,34,988.59
2012,12,17,07,35,988.59
2012,12,17,07,36,988.59
2012,12,17,07,37,988.59
2012,12,17,07,38,988.59
2012,12,17,07,39,988.59
2012,12,17,07,40,988.59
2012,12,17,07,41,988.59
2012,12,17,07,42,988.59
2012,12,17,07,43,988.59
2012,12,17,07,44,988.59
2012,12,17,07,45,989.06
2012,12,17,07,46,989.06
2012,12,17,07,47,989.06
2012,12,17,07,48,989.06
2012,12,17,07,49,989.06
2012,12,17,07,50,989.06
2012,12,17,07,51,989.06
2012,12,17,07,52,989.06
2012,12,17,07,53,989.06
2012,12,17,07,54,989.06
2012,12,17,07,55,989.06
2012,12,17,07,56,989.06
2012,12,17,07,57,989.06
2012,12,17,07,58,989.06
2012,12,17,07,59,989.09
2012,12,17,08,00,989.77
2012,12,17,08,01,989.77
2012,12,17,08,02,989.77
2012,12,17,08,03,989.77
2012,12,17,08,04,989.77
2012,12,17,08,05,989.77
2012,12,17,08,06,989.77
2012,12,17,08,07,989.77
2012,12,17,08,08,989.77
2012,12,17,08,09,989.77
2012,12,17,08,10,989.77
2012,12,17,08,11,989.77
2012,12,17,08,12,989.77
2012,12,17,08,13,989.77
2012,12,17,08,14,989.80
2012,12,17,08,15,990.62
2012,12,17,08,16,990.62
2012,12,17,08,17,990.62
2012,12,17,08,18,990.62
2012,12,17,08,19,990.62
2012,12,17,08,20,990.62
2012,12,17,08,21,990.62
2012,12,17,08,22,990.62
2012,12,17,08,23,990.62
2012,12,17,08,24,990.62
2012,12,17,08,25,990.62
2012,12,17,08,26,990.62
2012,12,17,08,27,990.62
2012,12,17,08,28,990.62
2012,12,17,08,29,990.64
2012,12,17,08,30,991.16
2012,12,17,08,31,991.16
2012,12,17,08,32,991.16
2012,12,17,08,33,991.16
2012,12,17,08,34,991.16
2012,12,17,08,35,991.16
2012,12,17,08,36,991.16
2012,12,17,08,37,991.16
2012,12,17,08,38,991.16
2012,12,17,08,39,991.16
2012,12,17,08,40,991.16
2012,12,17,08,41,991.16
2012,12,17,08,42,991.16
2012,12,17,08,43,991.16
2012,12,17,08,44,991.16
2012,12,17,08,45,991.87
2012,12,17,08,46,991.87
2012,12,17,08,47,991.87
2012,12,17,08,48,991.87
2012,12,17,08,49,991.87
2012,12,17,08,50,991.87
2012,12,17,08,51,991.87
2012,12,17,08,52,991.87
2012,12,17,08,53,991.87
2012,12,17,08,54,991.87
2012,12,17,08,55,991.87
2012,12,17,08,56,991.87
2012,12,17,08,57,991.87
2012,12,17,08,58,991.87
2012,12,17,08,59,991.87
2012,12,17,09,00,992.28
2012,12,17,09,01,992.28
2012,12,17,09,02,992.28
2012,12,17,09,03,992.28
2012,12,17,09,04,992.28
2012,12,17,09,05,992.28
2012,12,17,09,06,992.28
2012,12,17,09,07,992.28
2012,12,17,09,08,992.28
2012,12,17,09,09,992.28
2012,12,17,09,10,992.28
2012,12,17,09,11,992.28
2012,12,17,09,12,992.28
2012,12,17,09,13,992.28
2012,12,17,09,14,992.28
2012,12,17,09,15,992.65
2012,12,17,09,16,992.65
2012,12,17,09,17,992.65
2012,12,17,09,18,992.65
2012,12,17,09,19,992.65
2012,12,17,09,20,992.65
2012,12,17,09,21,992.65
2012,12,17,09,22,992.65
2012,12,17,09,23,992.65
2012,12,17,09,24,992.65
2012,12,17,09,25,992.65
2012,12,17,09,26,992.65
2012,12,17,09,27,992.65
2012,12,17,09,28,992.65
2012,12,17,09,29,992.65
2012,12,17,09,30,993.36
2012,12,17,09,31,993.36
2012,12,17,09,32,993.36
2012,12,17,09,33,993.36
2012,12,17,09,34,993.36
2012,12,17,09,35,993.36
2012,12,17,09,36,993.36
2012,12,17,09,37,993.36
2012,12,17,09,38,993.36
2012,12,17,09,39,993.36
2012,12,17,09,40,993.36
2012,12,17,09,41,993.36
2012,12,17,09,42,993.36
2012,12,17,09,43,993.36
2012,12,17,09,44,993.36
2012,12,17,09,45,994.21
2012,12,17,09,46,994.21
2012,12,17,09,47,994.21
2012,12,17,09,48,994.21
2012,12,17,09,49,994.21
2012,12,17,09,50,994.21
2012,12,17,09,51,994.21
2012,12,17,09,52,994.21
2012,12,17,09,53,994.21
2012,12,17,09,54,994.21
2012,12,17,09,55,994.21
2012,12,17,09,56,994.21
2012,12,17,09,57,994.21
2012,12,17,09,58,994.21
2012,12,17,09,59,994.21
2012,12,17,10,00,994.62
2012,12,17,10,01,994.62
2012,12,17,10,02,994.62
2012,12,17,10,03,994.62
2012,12,17,10,04,994.62
2012,12,17,10,05,994.62
2012,12,17,10,06,994.62
2012,12,17,10,07,994.62
2012,12,17,10,08,994.62
2012,12,17,10,09,994.62
2012,12,17,10,10,994.62
2012,12,17,10,11,994.62
2012,12,17,10,12,994.62
2012,12,17,10,13,994.62
2012,12,17,10,14,994.62
2012,12,17,10,15,995.36
2012,12,17,10,16,995.36
2012,12,17,10,17,995.36
2012,12,17,10,18,995.36
2012,12,17,10,19,995.36
2012,12,17,10,20,995.36
2012,12,17,10,21,995.36
2012,12,17,10,22,995.36
2012,12,17,10,23,995.36
2012,12,17,10,24,995.36
2012,12,17,10,25,995.36
2012,12,17,10,26,995.36
2012,12,17,10,27,995.36
2012,12,17,10,28,995.36
2012,12,17,10,29,995.38
2012,12,17,10,30,995.80
2012,12,17,10,31,995.80
2012,12,17,10,32,995.80
2012,12,17,10,33,995.80
2012,12,17,10,34,995.80
2012,12,17,10,35,995.80
2012,12,17,10,36,995.80
2012,12,17,10,37,995.80
2012,12,17,10,38,995.80
2012,12,17,10,39,995.80
2012,12,17,10,40,995.80
2012,12,17,10,41,995.80
2012,12,17,10,42,995.80
2012,12,17,10,43,995.80
2012,12,17,10,44,995.80
2012,12,17,10,45,996.28
2012,12,17,10,46,996.28
2012,12,17,10,47,996.28
2012,12,17,10,48,996.28
2012,12,17,10,49,996.28
2012,12,17,10,50,996.28
2012,12,17,10,51,996.28
2012,12,17,10,52,996.28
2012,12,17,10,53,996.28
2012,12,17,10,54,996.28
2012,12,17,10,55,996.28
2012,12,17,10,56,996.28
2012,12,17,10,57,996.28
2012,12,17,10,58,996.28
2012,12,17,10,59,996.28
2012,12,17,11,00,996.41
2012,12,17,11,01,996.41
2012,12,17,11,02,996.41
2012,12,17,11,03,996.41
2012,12,17,11,04,996.41
2012,12,17,11,05,996.41
2012,12,17,11,06,996.41
2012,12,17,11,07,996.41
2012,12,17,11,08,996.41
2012,12,17,11,09,996.41
2012,12,17,11,10,996.41
2012,12,17,11,11,996.41
2012,12,17,11,12,996.41
2012,12,17,11,13,996.41
2012,12,17,11,14,996.41
2012,12,17,11,15,997.26
2012,12,17,11,16,997.26
2012,12,17,11,17,997.26
2012,12,17,11,18,997.26
2012,12,17,11,19,997.26
2012,12,17,11,20,997.26
2012,12,17,11,21,997.26
2012,12,17,11,22,997.26
2012,12,17,11,23,997.26
2012,12,17,11,24,997.26
2012,12,17,11,25,997.26
2012,12,17,11,26,997.26
2012,12,17,11,27,997.26
2012,12,17,11,28,997.26
2012,12,17,11,29,997.26
2012,12,17,11,30,997.46
2012,12,17,11,31,997.46
2012,12,17,11,32,997.46
2012,12,17,11,33,997.46
2012,12,17,11,34,997.46
2012,12,17,11,35,997.46
2012,12,17,11,36,997.46
2012,12,17,11,37,997.46
2012,12,17,11,38,997.46
2012,12,17,11,39,997.46
2012,12,17,11,40,997.46
2012,12,17,11,41,997.46
2012,12,17,11,42,997.46
2012,12,17,11,43,997.46
2012,12,17,11,44,997.46
2012,12,17,11,45,998.41
2012,12,17,11,46,998.41
2012,12,17,11,47,998.41
2012,12,17,11,48,998.41
2012,12,17,11,49,998.41
2012,12,17,11,50,998.41
2012,12,17,11,51,998.41
2012,12,17,11,52,998.41
2012,12,17,11,53,998.41
2012,12,17,11,54,998.41
2012,12,17,11,55,998.41
2012,12,17,11,56,998.41
2012,12,17,11,57,998.41
2012,12,17,11,58,998.41
2012,12,17,11,59,998.41
2012,12,17,12,00,997.97
2012,12,17,12,01,997.97
2012,12,17,12,02,997.97
2012,12,17,12,03,997.97
2012,12,17,12,04,997.97
2012,12,17,12,05,997.97
2012,12,17,12,06,997.97
2012,12,17,12,07,997.97
2012,12,17,12,08,997.97
2012,12,17,12,09,997.97
2012,12,17,12,10,997.97
2012,12,17,12,11,997.97
2012,12,17,12,12,997.97
2012,12,17,12,13,997.97
2012,12,17,12,14,997.97
2012,12,17,12,15,998.44
2012,12,17,12,16,998.44
2012,12,17,12,17,998.44
2012,12,17,12,18,998.44
2012,12,17,12,19,998.44
2012,12,17,12,20,998.44
2012,12,17,12,21,998.44
2012,12,17,12,22,998.44
2012,12,17,12,23,998.44
2012,12,17,12,24,998.44
2012,12,17,12,25,998.44
2012,12,17,12,26,998.44
2012,12,17,12,27,998.44
2012,12,17,12,28,998.44
2012,12,17,12,29,998.44
2012,12,17,12,30,998.41
2012,12,17,12,31,998.41
2012,12,17,12,32,998.41
2012,12,17,12,33,998.41
2012,12,17,12,34,998.41
2012,12,17,12,35,998.41
2012,12,17,12,36,998.41
2012,12,17,12,37,998.41
2012,12,17,12,38,998.41
2012,12,17,12,39,998.41
2012,12,17,12,40,998.41
2012,12,17,12,41,998.41
2012,12,17,12,42,998.41
2012,12,17,12,43,998.41
2012,12,17,12,44,998.41
2012,12,17,12,45,999.09
2012,12,17,12,46,999.09
2012,12,17,12,47,999.09
2012,12,17,12,48,999.09
2012,12,17,12,49,999.09
2012,12,17,12,50,999.09
2012,12,17,12,51,999.09
2012,12,17,12,52,999.09
2012,12,17,12,53,999.09
2012,12,17,12,54,999.09
2012,12,17,12,55,999.09
2012,12,17,12,56,999.09
2012,12,17,12,57,999.09
2012,12,17,12,58,999.09
2012,12,17,12,59,999.09
2012,12,17,13,00,998.60
2012,12,17,13,01,998.58
2012,12,17,13,02,998.58
2012,12,17,13,03,998.58
2012,12,17,13,04,998.58
2012,12,17,13,05,998.58
2012,12,17,13,06,998.58
2012,12,17,13,07,998.58
2012,12,17,13,08,998.58
2012,12,17,13,09,998.58
2012,12,17,13,10,998.58
2012,12,17,13,11,998.58
2012,12,17,13,12,998.58
2012,12,17,13,13,998.58
2012,12,17,13,14,998.58
2012,12,17,13,15,998.99
2012,12,17,13,16,998.99
2012,12,17,13,17,998.99
2012,12,17,13,18,998.99
2012,12,17,13,19,998.99
2012,12,17,13,20,998.99
2012,12,17,13,21,998.99
2012,12,17,13,22,998.99
2012,12,17,13,23,998.99
2012,12,17,13,24,998.99
2012,12,17,13,25,998.99
2012,12,17,13,26,998.99
2012,12,17,13,27,998.99
2012,12,17,13,28,998.99
2012,12,17,13,29,998.99
2012,12,17,13,30,999.15
2012,12,17,13,31,999.15
2012,12,17,13,32,999.15
2012,12,17,13,33,999.15
2012,12,17,13,34,999.15
2012,12,17,13,35,999.15
2012,12,17,13,36,999.15
2012,12,17,13,37,999.15
2012,12,17,13,38,999.15
2012,12,17,13,39,999.15
2012,12,17,13,40,999.15
2012,12,17,13,41,999.15
2012,12,17,13,42,999.15
2012,12,17,13,43,999.15
2012,12,17,13,44,999.15
2012,12,17,13,45,999.46
2012,12,17,13,46,999.46
2012,12,17,13,47,999.46
2012,12,17,13,48,999.46
2012,12,17,13,49,999.46
2012,12,17,13,50,999.46
2012,12,17,13,51,999.46
2012,12,17,13,52,999.46
2012,12,17,13,53,999.46
2012,12,17,13,54,999.46
2012,12,17,13,55,999.46
2012,12,17,13,56,999.46
2012,12,17,13,57,999.46
2012,12,17,13,58,999.46
2012,12,17,13,59,999.46
2012,12,17,14,00,999.65
2012,12,17,14,01,999.66
2012,12,17,14,02,999.66
2012,12,17,14,03,999.66
2012,12,17,14,04,999.66
2012,12,17,14,05,999.66
2012,12,17,14,06,999.66
2012,12,17,14,07,999.66
2012,12,17,14,08,999.66
2012,12,17,14,09,999.66
2012,12,17,14,10,999.66
2012,12,17,14,11,999.66
2012,12,17,14,12,999.66
2012,12,17,14,13,999.66
2012,12,17,14,14,999.66
2012,12,17,14,15,1000.24
2012,12,17,14,16,1000.24
2012,12,17,14,17,1000.24
2012,12,17,14,18,1000.24
2012,12,17,14,19,1000.24
2012,12,17,14,20,1000.24
2012,12,17,14,21,1000.24
2012,12,17,14,22,1000.24
2012,12,17,14,23,1000.24
2012,12,17,14,24,1000.24
2012,12,17,14,25,1000.24
2012,12,17,14,26,1000.24
2012,12,17,14,27,1000.24
2012,12,17,14,28,1000.24
2012,12,17,14,29,1000.24
2012,12,17,14,30,1000.54
2012,12,17,14,31,1000.54
2012,12,17,14,32,1000.54
2012,12,17,14,33,1000.54
2012,12,17,14,34,1000.54
2012,12,17,14,35,1000.54
2012,12,17,14,36,1000.54
2012,12,17,14,37,1000.54
2012,12,17,14,38,1000.54
2012,12,17,14,39,1000.54
2012,12,17,14,40,1000.54
2012,12,17,14,41,1000.54
2012,12,17,14,42,1000.54
2012,12,17,14,43,1000.54
2012,12,17,14,44,1000.54
2012,12,17,14,45,1001.12
2012,12,17,14,46,1001.12
2012,12,17,14,47,1001.12
2012,12,17,14,48,1001.12
2012,12,17,14,49,1001.12
2012,12,17,14,50,1001.12
2012,12,17,14,51,1001.12
2012,12,17,14,52,1001.12
2012,12,17,14,53,1001.12
2012,12,17,14,54,1001.12
2012,12,17,14,55,1001.12
2012,12,17,14,56,1001.12
2012,12,17,14,57,1001.12
2012,12,17,14,58,1001.12
2012,12,17,14,59,1001.12
2012,12,17,15,00,1001.31
2012,12,17,15,01,1001.32
2012,12,17,15,02,1001.32
2012,12,17,15,03,1001.32
2012,12,17,15,04,1001.32
2012,12,17,15,05,1001.32
2012,12,17,15,06,1001.32
2012,12,17,15,07,1001.32
2012,12,17,15,08,1001.32
2012,12,17,15,09,1001.32
2012,12,17,15,10,1001.32
2012,12,17,15,11,1001.32
2012,12,17,15,12,1001.32
2012,12,17,15,13,1001.32
2012,12,17,15,14,1001.32
2012,12,17,15,15,1001.66
2012,12,17,15,16,1001.66
2012,12,17,15,17,1001.66
2012,12,17,15,18,1001.66
2012,12,17,15,19,1001.66
2012,12,17,15,20,1001.66
2012,12,17,15,21,1001.66
2012,12,17,15,22,1001.66
2012,12,17,15,23,1001.66
2012,12,17,15,24,1001.66
2012,12,17,15,25,1001.66
2012,12,17,15,26,1001.66
2012,12,17,15,27,1001.66
2012,12,17,15,28,1001.66
2012,12,17,15,29,1001.66
2012,12,17,15,30,1002.03
2012,12,17,15,31,1002.03
2012,12,17,15,32,1002.03
2012,12,17,15,33,1002.03
2012,12,17,15,34,1002.03
2012,12,17,15,35,1002.03
2012,12,17,15,36,1002.03
2012,12,17,15,37,1002.03
2012,12,17,15,38,1002.03
2012,12,17,15,39,1002.03
2012,12,17,15,40,1002.03
2012,12,17,15,41,1002.03
2012,12,17,15,42,1002.03
2012,12,17,15,43,1002.03
2012,12,17,15,44,1002.03
2012,12,17,15,45,1002.27
2012,12,17,15,46,1002.27
2012,12,17,15,47,1002.27
2012,12,17,15,48,1002.27
2012,12,17,15,49,1002.27
2012,12,17,15,50,1002.27
2012,12,17,15,51,1002.27
2012,12,17,15,52,1002.27
2012,12,17,15,53,1002.27
2012,12,17,15,54,1002.27
2012,12,17,15,55,1002.27
2012,12,17,15,56,1002.27
2012,12,17,15,57,1002.27
2012,12,17,15,58,1002.27
2012,12,17,15,59,1002.27
2012,12,17,16,00,1002.56
2012,12,17,16,01,1002.57
2012,12,17,16,02,1002.57
2012,12,17,16,03,1002.57
2012,12,17,16,04,1002.57
2012,12,17,16,05,1002.57
2012,12,17,16,06,1002.57
2012,12,17,16,07,1002.57
2012,12,17,16,08,1002.57
2012,12,17,16,09,1002.57
2012,12,17,16,10,1002.57
2012,12,17,16,11,1002.57
2012,12,17,16,12,1002.57
2012,12,17,16,13,1002.57
2012,12,17,16,14,1002.57
2012,12,17,16,15,1002.64
2012,12,17,16,16,1002.64
2012,12,17,16,17,1002.64
2012,12,17,16,18,1002.64
2012,12,17,16,19,1002.64
2012,12,17,16,20,1002.64
2012,12,17,16,21,1002.64
2012,12,17,16,22,1002.64
2012,12,17,16,23,1002.64
2012,12,17,16,24,1002.64
2012,12,17,16,25,1002.64
2012,12,17,16,26,1002.64
2012,12,17,16,27,1002.64
2012,12,17,16,28,1002.64
2012,12,17,16,29,1002.64
2012,12,17,16,30,1002.68